Wind_Speed
17 15 13 11 10 10 9 7 6 4 3 2 1 1 1 1 2 1 1 0 1 2 3 4 4 5 6 8 8 9 9 9 10 10 9 8 8 8 7 7 6 6 5 4 3 3 3 2 2 2 2 4 5 4 4 3 4 5 5 4 3 2 1
18 16 13 11 10 9 8 7 5 4 3 2 1 0 1 1 1 2 2 3 3 3 4 5 5 5 6 7 8 9 10 10 10 10 10 10 9 9 8 8 8 7 6 5 5 5 5 4 3 2 3 4 4 4 3 3 4 4 3 2 2 2 2
18 16 14 12 11 9 8 6 5 3 3 3 3 3 4 4 4 4 5 6 5 5 5 6 6 6 6 6 8 9 9 9 9 10 10 11 10 9 9 8 8 8 7 7 8 8 7 6 4 3 3 4 4 5 5 4 4 4 3 3 3 3 3
17 15 13 12 11 9 7 6 4 3 2 3 4 5 6 7 7 7 8 8 7 6 5 5 6 6 6 6 7 8 9 8 8 9 10 10 10 10 9 9 9 9 9 10 10 9 9 8 6 4 4 4 4 5 6 6 5 5 4 4 4 3 4
17 14 13 12 11 9 7 5 3 1 1 3 5 6 7 8 8 8 8 8 7 6 5 5 6 6 6 6 7 8 10 10 10 10 11 11 10 10 10 10 10 10 10 11 10 9 9 8 7 6 5 5 5 5 6 6 5 5 5 4 4 4 4
18 15 14 12 10 8 6 4 3 1 2 4 6 8 9 8 7 6 6 5 5 4 4 5 6 6 6 6 7 8 10 11 11 11 11 10 10 10 10 11 11 11 11 9 8 8 8 7 6 6 5 6 5 5 6 6 5 6 5 4 4 4 4
18 16 15 12 10 8 6 5 4 2 2 4 6 8 9 8 7 5 3 3 3 3 4 5 6 6 6 6 7 8 9 10 10 10 10 9 9 10 10 11 11 11 10 9 8 8 8 7 6 6 6 5 4 4 5 5 5 5 4 4 4 3 3
19 17 14 12 11 9 7 5 4 2 2 3 5 7 7 6 5 4 3 2 3 3 4 5 6 7 7 6 7 8 9 9 10 10 10 10 10 10 10 11 11 11 10 9 9 8 7 7 7 7 6 5 4 4 4 5 5 4 4 4 4 3 2
18 16 14 12 11 9 7 5 3 2 2 3 5 7 6 5 5 4 3 4 4 4 4 5 7 7 7 6 7 8 9 10 11 11 11 11 11 11 11 12 12 11 10 9 9 8 7 6 6 6 6 5 5 4 4 4 5 4 4 3 2 1 1
18 17 15 12 10 8 7 6 4 3 3 4 6 7 7 7 6 5 4 5 6 6 6 6 7 7 7 7 7 9 10 10 10 11 10 10 12 12 12 13 13 12 11 10 9 8 7 6 6 6 5 5 5 4 4 4 4 4 4 3 2 1 1
19 18 16 12 9 8 8 8 6 5 5 5 7 8 8 8 8 6 5 5 7 8 8 8 8 7 6 7 8 9 9 9 9 8 8 9 11 12 13 14 14 13 12 11 10 9 7 7 7 6 6 7 7 5 5 5 5 4 4 3 3 2 2
20 18 15 13 11 10 10 9 8 7 8 7 8 9 9 9 9 8 7 6 7 8 8 9 9 8 6 7 7 8 8 8 8 7 6 8 9 10 12 13 13 13 13 12 10 9 9 8 7 7 8 8 8 6 6 6 5 4 4 4 4 4 3
20 18 16 14 13 13 11 9 8 9 9 9 9 9 10 9 9 8 8 7 7 8 8 8 8 8 7 7 7 8 8 8 8 6 6 8 9 9 10 11 12 12 12 12 10 9 10 9 8 8 8 8 7 6 6 6 5 5 5 5 4 4 4
21 19 18 15 15 14 12 10 10 10 10 11 11 11 10 10 9 8 8 8 8 8 7 7 7 7 7 8 8 9 9 9 8 7 8 10 11 11 11 11 11 12 12 12 11 11 10 9 8 8 7 6 6 6 5 4 5 6 7 6 5 5 4
22 20 19 17 16 15 13 12 11 10 11 11 12 12 11 11 10 9 8 8 9 8 8 7 7 8 8 9 9 9 9 9 8 8 10 12 12 13 13 13 12 12 12 12 12 11 10 9 8 8 7 6 5 5 4 4 6 7 7 6 5 5 4
23 22 20 19 17 16 15 13 12 11 11 12 12 12 11 11 11 10 9 8 9 8 8 7 7 8 9 9 9 9 9 9 8 9 12 13 13 14 14 14 13 13 14 14 13 13 12 11 9 9 8 6 5 4 4 5 7 7 6 5 5 4 4
23 23 22 20 19 17 16 15 14 13 13 14 13 12 11 11 10 10 9 9 8 8 8 8 7 8 9 9 9 9 9 9 9 10 12 13 14 14 15 15 14 15 16 16 14 13 13 12 11 9 8 6 6 6 6 7 7 6 5 5 5 5 5
25 25 23 21 20 19 18 17 16 16 16 16 15 13 12 10 10 10 9 9 8 8 8 8 8 8 9 10 10 9 10 10 9 10 12 13 13 14 15 15 16 16 17 16 15 14 14 13 11 10 9 7 7 7 7 7 7 6 6 6 7 7 7
26 24 22 21 21 20 20 19 18 18 18 17 16 15 13 11 10 10 9 8 8 8 8 8 8 9 10 11 10 10 10 10 10 11 11 12 13 14 14 15 16 17 17 17 16 15 15 14 13 12 11 10 10 9 9 9 9 8 8 9 9 9 9
22 20 20 23 24 23 22 21 20 19 19 18 17 16 15 12 10 9 9 8 8 8 8 8 8 9 10 11 11 10 10 10 10 11 12 13 13 13 14 15 16 17 18 18 17 17 17 17 16 16 15 15 13 13 12 11 11 10 10 10 9 9 9
22 21 22 24 25 25 25 24 22 20 20 19 19 17 16 13 10 8 9 9 9 9 9 8 8 9 9 10 10 10 10 9 10 10 12 13 13 13 14 15 16 17 17 18 18 18 18 18 17 17 17 16 15 14 13 12 11 10 9 9 9 9 10
22 23 22 23 25 26 26 26 25 24 23 22 21 20 17 13 10 8 9 9 10 10 10 9 9 9 10 10 10 10 10 10 10 11 11 12 13 13 14 15 16 16 16 16 17 17 17 16 16 15 14 14 13 13 12 11 10 10 10 10 10 11 13
22 21 20 21 24 25 24 25 26 25 25 25 24 22 18 13 10 9 9 10 10 10 10 9 9 10 11 11 11 11 11 11 11 12 12 12 13 13 14 15 16 16 16 16 16 16 16 16 15 14 14 14 13 13 13 12 12 12 13 13 14 15 16
22 22 23 24 26 26 26 27 25 23 23 22 20 19 16 12 10 9 9 10 10 10 10 10 11 11 12 12 12 12 12 13 13 13 13 13 14 14 15 15 16 16 17 17 17 17 16 16 16 16 16 16 15 15 15 15 15 16 16 17 17 18 19
21 21 22 24 25 26 25 23 20 17 16 16 15 15 15 12 10 10 10 10 10 10 11 11 12 13 13 13 13 13 13 13 14 14 14 15 15 16 16 16 17 17 17 17 17 17 17 17 17 17 17 17 18 18 18 18 19 20 20 20 21 21 21
13 11 12 14 15 16 16 14 14 14 14 14 15 15 15 13 12 11 11 11 11 11 12 13 13 14 15 15 15 15 15 15 15 15 15 15 16 16 17 17 18 18 18 18 18 18 18 18 19 19 20 20 21 21 22 22 23 23 24 24 24 24 23
9 8 9 9 10 12 13 12 11 12 13 15 16 16 16 15 13 13 13 13 13 13 13 14 14 15 16 17 17 17 17 17 17 17 17 17 17 17 18 18 18 19 19 20 20 20 21 21 22 23 23 24 25 25 26 26 26 27 27 27 27 27 26
8 9 10 10 10 12 13 12 11 12 13 15 16 17 17 16 15 15 15 15 14 14 15 15 16 16 17 18 19 19 19 20 20 20 20 20 20 20 20 21 21 21 22 22 22 23 24 24 25 26 27 27 28 29 29 29 30 31 31 30 30 29 29
9 10 11 11 12 13 13 13 13 13 14 16 16 17 17 17 17 17 17 17 17 16 16 16 17 17 18 19 19 20 21 22 22 23 23 23 23 24 24 24 24 25 25 25 26 27 28 28 29 30 30 31 32 32 33 32 33 33 33 33 33 32 33
9 10 12 13 13 13 13 13 14 15 15 16 17 17 18 18 19 19 19 19 19 18 18 19 19 19 20 20 21 21 22 23 24 24 25 26 26 26 27 28 28 28 28 28 29 31 31 32 32 33 33 33 34 35 35 34 35 35 35 35 35 36 36
8 8 10 11 12 12 12 13 14 14 15 16 17 18 19 19 20 21 21 21 21 21 21 22 22 22 22 22 22 23 24 25 25 26 26 27 28 28 29 30 30 30 31 31 32 33 34 35 35 35 35 35 36 36 36 35 36 36 36 35 35 36 37
6 7 9 9 10 11 12 13 13 15 16 17 17 18 19 20 21 21 22 23 23 24 24 24 24 24 24 24 24 25 26 26 27 28 28 28 29 29 30 30 31 32 32 32 33 34 35 36 36 36 36 37 37 36 35 36 37 37 37 37 36 37 39
8 9 10 9 9 10 10 11 12 14 16 17 18 18 19 20 20 21 22 23 24 24 25 26 26 26 27 27 27 28 29 29 29 30 30 31 31 31 31 32 32 33 33 33 33 34 35 35 36 36 37 37 37 36 36 37 38 38 39 39 39 39 40
10 11 11 11 11 11 12 12 14 15 16 17 18 18 19 20 20 21 22 23 24 25 26 27 28 29 29 30 30 31 32 33 33 33 34 34 35 35 35 35 35 36 37 37 37 37 37 38 38 39 40 40 40 40 40 41 41 41 42 42 42 42 43
7 9 10 11 12 13 14 15 16 17 18 19 20 20 21 22 23 23 24 25 26 27 29 30 31 32 33 33 33 34 35 36 36 37 37 38 38 39 40 40 40 40 41 41 42 42 42 43 43 44 44 44 44 45 46 46 46 47 47 46 46 46 45
11 12 12 13 14 16 17 18 19 20 21 22 23 23 24 25 26 27 28 28 29 30 31 32 34 35 36 37 37 38 38 39 40 41 41 42 42 43 44 44 45 45 45 46 46 47 47 48 49 49 49 50 50 51 52 52 52 51 50 49 48 47 46
16 16 17 18 19 20 20 21 22 23 24 24 25 26 27 27 28 29 30 31 32 33 34 35 36 37 38 39 40 41 41 42 42 43 44 45 45 45 46 46 47 47 48 48 49 50 50 51 52 53 53 54 54 55 55 55 54 53 52 51 49 47 46
Wind_Direction
173 175 173 166 158 154 150 142 136 128 114 109 121 150 160 142 125 112 98 69 258 247 242 232 218 211 216 221 221 221 220 219 220 222 222 220 216 207 200 200 200 199 197 192 170 166 187 178 157 141 114 131 141 152 163 161 166 169 166 161 161 179 236
177 173 169 160 153 149 143 137 132 117 94 70 53 323 273 264 265 274 281 288 294 286 266 251 237 223 218 219 220 220 218 215 214 217 218 216 214 207 201 201 202 206 206 193 180 179 187 190 177 148 129 137 142 150 156 156 160 163 167 180 211 256 282
178 172 166 156 148 145 142 139 129 102 66 30 3 335 318 304 294 287 282 284 290 291 281 263 251 238 227 222 222 221 218 216 214 215 217 215 214 210 205 204 207 212 209 197 192 189 188 194 197 178 164 168 165 162 165 172 175 179 199 222 243 267 287
177 172 161 151 148 147 144 140 126 98 47 359 338 328 319 309 300 291 284 283 284 286 281 267 258 250 237 230 227 217 208 211 216 218 223 220 214 211 206 206 211 214 210 201 196 197 194 193 201 201 190 189 185 176 176 184 194 202 219 234 256 285 294
176 170 156 151 153 149 146 146 143 123 6 341 333 330 323 315 307 295 285 280 279 278 269 259 258 257 247 239 234 217 204 208 214 216 221 221 216 213 209 209 212 215 219 210 194 197 203 197 203 213 209 200 191 185 187 196 211 220 229 243 270 294 297
175 167 158 158 159 155 157 168 182 213 319 341 343 340 334 330 327 312 294 282 276 269 262 262 263 263 257 248 241 227 213 212 213 214 220 222 220 218 214 215 215 213 219 216 196 198 208 205 210 217 219 218 207 197 200 207 220 230 238 257 280 290 291
174 165 163 165 165 168 176 192 210 232 314 347 352 350 343 339 340 333 309 289 278 267 265 270 269 269 265 254 241 229 219 213 212 216 220 221 221 220 214 214 216 213 213 214 208 207 208 205 208 210 212 220 219 211 212 215 225 233 243 261 272 271 266
173 167 170 173 176 183 190 204 220 239 324 349 351 356 351 339 336 334 310 282 272 267 267 273 274 272 267 255 238 226 218 212 213 217 218 216 216 217 214 211 213 214 211 212 215 214 209 205 206 206 205 208 211 211 213 218 222 228 239 251 253 248 249
175 175 179 183 187 192 201 217 230 252 320 345 346 355 1 344 323 307 290 274 269 271 270 271 270 269 267 255 239 226 219 216 219 222 221 218 215 214 215 212 213 216 214 214 219 219 217 216 216 217 212 209 215 212 202 204 209 215 225 230 233 238 263
183 185 188 191 195 202 217 233 249 272 303 334 340 350 2 354 329 300 285 278 277 280 277 273 269 266 265 255 240 228 223 224 227 228 222 216 214 215 216 215 215 218 217 216 220 223 224 224 224 224 211 199 206 210 198 193 194 202 207 198 186 183 162
192 192 193 196 205 221 236 244 255 273 295 318 332 340 351 354 340 317 298 288 284 283 282 281 276 269 263 251 240 231 227 227 228 229 221 211 211 213 216 217 217 218 218 217 219 221 218 213 215 215 196 188 195 201 204 199 188 189 193 181 174 176 178
197 196 201 207 218 233 242 248 258 272 289 303 316 326 336 346 342 326 309 294 283 281 281 280 277 271 260 246 237 230 226 224 225 229 218 203 202 206 210 214 217 218 217 216 216 212 205 201 204 201 189 189 194 198 208 208 193 186 187 188 189 187 184
201 202 208 215 224 234 241 248 260 271 281 292 303 310 320 331 334 323 309 295 283 278 275 272 270 264 253 241 232 224 218 217 224 226 206 193 195 198 199 203 210 211 207 205 200 193 194 196 200 200 193 193 201 211 221 216 194 182 180 184 191 189 187
203 208 213 219 227 235 240 246 257 266 274 285 294 298 305 315 320 314 303 293 283 275 268 260 255 249 242 234 225 216 211 212 216 209 196 193 193 192 190 192 197 194 189 187 181 182 191 194 199 206 205 207 221 232 232 209 183 179 177 178 188 193 197
206 212 216 221 227 232 239 246 255 262 271 282 288 290 294 303 310 304 294 285 277 271 263 250 239 234 231 228 220 213 209 208 207 202 197 196 194 190 188 189 192 189 183 177 175 181 189 190 197 211 214 220 233 241 228 184 169 175 174 176 191 201 211
208 214 218 222 226 230 237 246 253 259 268 278 281 283 285 295 303 298 287 279 270 266 259 247 234 226 223 222 218 212 208 205 203 202 200 199 196 193 190 189 191 190 183 176 176 184 188 188 199 212 215 218 225 224 204 175 167 171 174 181 202 219 233
210 215 219 222 225 229 236 244 251 255 263 272 274 275 278 289 299 294 284 277 268 262 256 246 234 225 219 220 217 208 205 203 201 202 202 201 200 197 192 188 189 188 183 178 178 184 187 190 199 207 208 209 205 195 183 172 172 176 182 201 225 242 251
213 214 216 221 225 231 239 246 251 257 264 270 270 269 272 283 294 291 280 270 264 257 249 240 232 223 217 219 218 211 207 204 202 202 201 199 199 197 192 187 185 184 180 177 175 177 180 183 187 190 191 192 190 183 178 179 187 197 208 222 234 244 251
215 213 214 222 230 236 242 246 252 259 266 271 270 268 269 277 290 289 275 262 255 248 242 235 228 221 216 216 217 214 211 207 203 202 200 196 194 193 192 188 185 182 177 173 171 171 171 171 171 173 179 184 187 188 189 192 199 207 217 226 233 241 250
226 221 220 226 233 238 242 245 250 255 263 268 268 266 266 271 283 284 270 256 244 238 235 234 231 224 218 217 216 215 213 209 203 200 198 196 191 191 193 191 189 186 179 175 172 171 171 171 172 175 179 184 187 191 195 199 204 210 220 231 242 253 263
233 231 227 228 233 238 242 245 248 252 258 263 264 263 261 264 272 276 266 252 239 231 227 228 231 228 222 218 216 214 211 205 200 196 196 194 190 189 191 191 193 192 187 183 180 179 180 180 182 183 184 187 191 194 199 204 211 219 229 242 255 266 275
231 229 225 227 233 238 242 246 248 249 251 255 259 258 254 256 261 264 258 249 241 234 229 229 232 233 231 224 218 213 208 202 198 195 195 195 190 187 188 190 193 194 192 190 188 187 189 191 193 195 196 198 201 205 210 217 225 233 242 252 261 269 276
232 230 227 231 237 239 240 242 243 244 247 252 255 249 243 246 251 252 251 248 246 243 239 237 238 239 240 235 228 220 211 204 202 200 200 199 196 193 192 193 195 196 195 195 195 196 199 202 205 209 212 214 216 219 223 228 235 242 248 254 260 267 272
229 232 234 237 239 240 241 242 244 247 249 250 247 236 231 236 242 246 249 248 248 250 249 247 247 246 245 244 239 233 224 216 210 206 206 206 204 203 201 200 200 201 202 203 204 207 209 212 215 217 220 223 225 228 232 237 242 247 252 256 261 267 271
234 235 236 238 241 242 244 244 244 243 239 233 226 220 222 228 234 243 250 250 249 250 251 252 252 251 250 247 245 242 238 233 226 220 217 215 213 211 210 209 208 209 211 212 215 217 219 222 226 228 231 234 238 241 244 247 250 254 257 260 264 267 272
232 224 222 229 234 232 229 227 227 226 222 219 217 218 222 225 229 240 249 251 252 252 251 251 251 252 253 251 249 248 246 245 243 240 237 233 229 226 223 221 220 220 221 223 226 229 231 234 238 241 244 246 249 252 255 257 260 263 265 268 271 274 277
208 205 206 210 214 212 209 212 220 221 219 220 220 220 222 225 232 242 248 251 252 252 252 253 252 252 253 253 252 251 249 249 249 249 250 249 248 246 244 243 240 238 238 238 239 241 243 246 250 252 254 256 258 260 262 264 266 268 269 272 274 276 278
210 209 203 198 201 207 209 213 219 219 219 222 223 222 224 229 238 246 250 252 251 250 251 252 252 252 253 253 253 252 251 250 249 250 251 252 252 253 254 255 254 254 255 254 254 255 256 258 261 263 265 267 268 268 269 271 273 274 275 277 277 279 280
210 201 194 192 196 203 206 210 215 218 218 221 224 225 229 234 240 246 250 250 249 249 250 250 250 252 252 253 254 253 252 250 249 249 250 251 252 254 255 256 257 258 260 260 261 262 263 265 267 269 271 273 273 274 275 276 277 278 279 281 282 283 283
204 200 196 195 198 202 205 208 214 217 218 221 225 228 232 236 241 246 248 248 247 248 249 249 249 250 251 252 253 253 252 252 250 249 249 249 250 252 253 255 256 257 258 259 260 261 263 265 267 268 270 272 273 274 274 276 276 277 278 280 281 283 283
201 205 202 199 200 205 209 212 217 221 222 225 228 232 236 240 243 246 247 248 250 251 252 252 251 251 252 253 253 254 255 255 254 253 252 251 252 252 253 254 255 256 256 256 257 259 262 264 265 267 268 269 270 271 273 275 275 276 277 278 279 281 283
202 214 217 210 208 212 215 217 222 225 227 229 232 235 239 241 243 245 247 250 254 256 257 256 255 256 257 257 257 258 257 257 256 256 255 254 255 255 256 256 257 257 257 257 257 258 260 262 263 265 266 267 269 272 274 275 275 276 277 278 279 280 282
201 212 222 224 225 230 233 234 236 236 237 238 239 240 243 244 245 248 250 254 257 260 261 261 262 262 263 264 264 264 264 263 262 261 260 259 258 258 259 260 260 260 260 259 259 259 260 261 263 264 265 267 269 271 272 273 273 275 276 277 278 279 281
196 203 213 225 235 244 250 253 252 250 248 247 246 248 250 251 253 255 257 259 261 263 265 267 267 268 268 268 268 268 269 269 268 268 267 266 265 264 263 263 264 264 264 263 263 262 262 263 264 266 268 270 272 273 274 274 275 276 277 278 279 280 281
221 219 223 231 239 245 250 253 254 255 254 252 251 252 253 255 257 259 260 262 263 264 265 266 267 268 268 268 268 268 269 268 268 268 267 267 267 266 266 266 266 266 266 267 267 267 267 267 268 269 270 272 273 274 275 276 277 278 279 280 280 280 281
265 262 259 257 256 256 256 255 256 257 257 255 254 254 255 256 258 260 262 263 264 265 266 266 267 268 268 269 269 270 270 269 269 269 268 268 267 267 266 266 266 266 266 266 267 269 270 270 271 272 274 275 275 276 276 277 278 279 280 280 280 280 281
265 265 265 265 265 265 264 263 262 262 261 261 260 260 261 261 262 263 264 266 267 268 269 270 271 271 271 272 272 272 272 271 271 271 271 271 270 269 269 269 268 268 267 267 267 268 269 270 271 272 274 275 275 276 276 276 277 278 278 278 278 278 278
Height
3142 3144 3146 3147 3148 3149 3150 3151 3152 3153 3153 3154 3154 3155 3155 3156 3156 3157 3157 3157 3158 3158 3158 3159 3159 3160 3160 3161 3161 3162 3163 3164 3164 3165 3166 3167 3167 3168 3169 3170 3171 3171 3171 3172 3173 3173 3173 3173 3173 3174 3174 3174 3175 3175 3176 3176 3177 3177 3177 3178 3178 3179 3179
3141 3143 3145 3146 3147 3148 3149 3150 3151 3152 3153 3153 3154 3154 3154 3155 3155 3156 3156 3157 3157 3157 3157 3157 3158 3158 3159 3159 3160 3161 3161 3162 3163 3164 3165 3165 3166 3167 3168 3169 3169 3170 3171 3172 3172 3172 3173 3173 3173 3174 3174 3174 3175 3175 3176 3177 3177 3177 3178 3178 3179 3179 3179
3141 3143 3144 3146 3147 3148 3149 3150 3151 3151 3152 3152 3152 3153 3153 3153 3154 3155 3155 3155 3156 3156 3156 3156 3157 3157 3158 3158 3159 3159 3160 3161 3162 3163 3163 3164 3165 3166 3166 3167 3168 3169 3170 3171 3171 3172 3172 3172 3173 3173 3174 3174 3174 3175 3176 3176 3177 3177 3178 3178 3178 3178 3178
3141 3142 3144 3145 3146 3148 3149 3150 3150 3151 3151 3151 3151 3152 3152 3152 3152 3153 3153 3154 3154 3155 3155 3155 3156 3156 3157 3157 3158 3158 3159 3160 3161 3162 3162 3163 3164 3165 3165 3166 3167 3167 3168 3169 3170 3171 3172 3172 3172 3173 3173 3173 3174 3174 3175 3175 3176 3176 3177 3177 3177 3178 3178
3140 3142 3143 3144 3146 3147 3148 3149 3150 3150 3150 3150 3150 3150 3151 3151 3151 3151 3151 3152 3153 3154 3154 3154 3155 3155 3155 3156 3156 3157 3158 3159 3160 3160 3161 3162 3163 3164 3164 3165 3166 3166 3167 3167 3168 3170 3171 3171 3172 3172 3173 3173 3173 3174 3174 3175 3175 3176 3176 3176 3176 3177 3177
3139 3141 3142 3144 3145 3146 3147 3148 3149 3149 3150 3150 3149 3149 3149 3149 3149 3149 3150 3150 3151 3152 3153 3153 3154 3154 3154 3155 3155 3156 3157 3158 3158 3159 3159 3160 3161 3163 3164 3164 3165 3165 3166 3166 3167 3168 3170 3171 3171 3172 3172 3172 3173 3173 3174 3174 3174 3175 3175 3175 3176 3176 3176
3138 3140 3141 3143 3144 3145 3146 3147 3148 3148 3149 3149 3149 3148 3148 3148 3148 3148 3148 3149 3150 3151 3152 3152 3153 3153 3153 3154 3154 3155 3156 3156 3157 3158 3159 3159 3160 3161 3163 3163 3164 3165 3165 3166 3167 3168 3169 3170 3171 3171 3172 3172 3172 3173 3173 3174 3174 3174 3174 3175 3175 3175 3176
3137 3139 3141 3142 3143 3144 3145 3146 3147 3147 3148 3148 3148 3148 3147 3147 3147 3147 3148 3149 3149 3150 3151 3151 3152 3152 3152 3153 3153 3154 3154 3155 3156 3157 3158 3158 3159 3160 3161 3162 3163 3164 3165 3166 3167 3167 3168 3169 3169 3170 3171 3172 3172 3172 3172 3173 3173 3173 3174 3174 3174 3175 3175
3137 3138 3140 3141 3142 3143 3144 3145 3146 3146 3147 3147 3147 3147 3147 3147 3147 3147 3148 3148 3149 3149 3150 3150 3151 3151 3151 3152 3152 3153 3153 3154 3155 3156 3157 3158 3158 3159 3160 3161 3162 3163 3163 3165 3166 3166 3167 3168 3168 3169 3170 3170 3171 3171 3171 3172 3172 3173 3173 3173 3174 3174 3174
3137 3138 3139 3140 3141 3142 3143 3144 3145 3146 3146 3146 3146 3146 3146 3146 3146 3146 3147 3147 3148 3148 3149 3149 3150 3150 3150 3151 3151 3152 3152 3153 3154 3155 3155 3156 3157 3158 3159 3159 3160 3161 3162 3163 3164 3165 3165 3166 3167 3168 3169 3169 3169 3170 3170 3171 3171 3172 3172 3173 3173 3173 3174
3135 3136 3138 3139 3141 3142 3143 3144 3144 3145 3145 3146 3146 3146 3146 3146 3146 3146 3146 3147 3147 3147 3148 3148 3148 3149 3149 3150 3150 3151 3152 3152 3153 3153 3154 3155 3156 3156 3157 3158 3159 3160 3161 3162 3163 3164 3164 3165 3166 3167 3168 3168 3169 3169 3170 3170 3170 3171 3172 3172 3172 3173 3173
3133 3135 3137 3138 3139 3140 3141 3142 3143 3144 3144 3145 3145 3145 3145 3145 3145 3145 3145 3146 3146 3146 3147 3147 3147 3148 3148 3149 3149 3150 3151 3151 3152 3152 3153 3153 3154 3155 3156 3156 3157 3158 3160 3161 3162 3162 3163 3164 3165 3166 3167 3167 3168 3169 3169 3170 3170 3170 3171 3171 3172 3172 3173
3133 3134 3136 3137 3138 3139 3140 3141 3142 3143 3143 3143 3144 3144 3144 3145 3145 3145 3145 3145 3145 3145 3146 3146 3146 3146 3147 3148 3149 3149 3150 3150 3151 3151 3152 3152 3153 3154 3155 3155 3156 3157 3158 3160 3160 3161 3162 3163 3164 3165 3166 3166 3167 3168 3169 3169 3169 3170 3170 3171 3171 3172 3172
3131 3133 3134 3135 3136 3137 3139 3140 3141 3142 3142 3142 3143 3143 3143 3144 3144 3144 3144 3144 3144 3144 3145 3145 3145 3146 3146 3147 3148 3149 3149 3150 3150 3150 3151 3152 3153 3153 3154 3155 3156 3156 3157 3158 3159 3160 3161 3162 3163 3164 3165 3165 3166 3167 3168 3168 3169 3169 3170 3170 3171 3171 3172
3130 3131 3132 3134 3135 3136 3137 3138 3139 3140 3141 3141 3142 3142 3143 3143 3143 3143 3144 3144 3144 3144 3144 3144 3144 3145 3146 3146 3147 3148 3148 3149 3149 3150 3150 3151 3152 3153 3154 3154 3155 3156 3157 3158 3159 3160 3161 3162 3162 3163 3164 3164 3165 3166 3167 3167 3168 3169 3169 3170 3170 3171 3171
3128 3129 3131 3132 3133 3134 3135 3136 3138 3139 3139 3140 3141 3141 3142 3142 3142 3142 3142 3143 3143 3143 3143 3143 3144 3144 3145 3146 3146 3147 3148 3148 3149 3149 3150 3151 3151 3152 3153 3154 3155 3155 3156 3157 3158 3159 3160 3161 3162 3162 3163 3164 3164 3165 3166 3166 3167 3168 3168 3169 3170 3170 3171
3126 3127 3128 3130 3131 3132 3133 3134 3136 3136 3138 3139 3139 3140 3140 3141 3141 3141 3141 3141 3141 3141 3142 3142 3143 3144 3144 3145 3145 3146 3147 3148 3149 3149 3150 3150 3151 3151 3152 3153 3154 3155 3156 3156 3157 3158 3159 3160 3161 3162 3163 3163 3164 3165 3165 3166 3166 3167 3168 3168 3169 3169 3169
3123 3123 3126 3128 3129 3130 3131 3133 3134 3135 3136 3137 3138 3139 3139 3139 3139 3139 3139 3140 3140 3140 3141 3141 3142 3143 3143 3144 3145 3145 3146 3147 3148 3149 3150 3150 3151 3151 3152 3152 3153 3154 3155 3156 3157 3158 3159 3160 3160 3161 3162 3163 3164 3164 3165 3165 3166 3166 3167 3167 3168 3168 3168
3119 3121 3124 3126 3128 3129 3130 3131 3132 3133 3134 3135 3136 3137 3138 3138 3138 3138 3139 3139 3139 3139 3139 3140 3141 3142 3142 3143 3144 3144 3145 3146 3147 3148 3149 3150 3150 3151 3151 3152 3152 3153 3154 3155 3156 3157 3158 3158 3159 3160 3161 3162 3163 3164 3164 3165 3165 3166 3166 3166 3167 3167 3167
3120 3122 3124 3125 3126 3127 3128 3129 3130 3131 3132 3133 3134 3135 3136 3137 3137 3137 3138 3138 3138 3138 3139 3139 3140 3141 3142 3142 3143 3144 3145 3146 3147 3148 3149 3149 3150 3150 3151 3151 3152 3152 3153 3153 3154 3155 3156 3157 3158 3159 3160 3161 3162 3162 3163 3164 3164 3165 3165 3165 3165 3166 3166
3120 3121 3122 3123 3124 3125 3126 3127 3128 3129 3130 3131 3132 3133 3134 3135 3135 3136 3136 3137 3137 3137 3138 3138 3139 3140 3141 3142 3143 3144 3145 3146 3146 3147 3148 3149 3149 3150 3150 3151 3151 3152 3152 3153 3153 3154 3155 3156 3157 3158 3159 3160 3161 3161 3162 3162 3163 3163 3163 3163 3164 3164 3164
3117 3118 3120 3121 3122 3122 3124 3125 3126 3127 3128 3129 3130 3132 3132 3133 3134 3134 3135 3136 3136 3137 3137 3138 3138 3139 3140 3141 3142 3143 3144 3145 3146 3147 3148 3148 3149 3149 3150 3150 3151 3152 3152 3153 3153 3154 3155 3156 3156 3157 3158 3159 3159 3160 3160 3160 3161 3161 3162 3162 3162 3162 3162
3114 3116 3118 3120 3120 3120 3121 3122 3123 3124 3126 3127 3128 3129 3131 3131 3132 3133 3134 3135 3135 3136 3137 3137 3138 3139 3140 3141 3142 3143 3143 3144 3145 3146 3147 3147 3148 3149 3149 3150 3150 3151 3152 3152 3153 3153 3154 3155 3155 3156 3156 3157 3157 3158 3158 3159 3159 3159 3160 3160 3160 3160 3160
3112 3114 3115 3117 3117 3118 3118 3119 3121 3122 3123 3124 3126 3127 3129 3130 3131 3131 3132 3133 3134 3135 3136 3137 3137 3138 3139 3140 3141 3142 3142 3143 3144 3145 3145 3146 3147 3148 3149 3149 3150 3150 3151 3151 3152 3153 3153 3154 3154 3154 3155 3155 3155 3156 3156 3156 3157 3157 3157 3157 3157 3157 3157
3109 3111 3112 3113 3114 3115 3115 3117 3119 3120 3121 3122 3124 3126 3127 3129 3129 3130 3131 3132 3133 3134 3135 3136 3136 3137 3138 3139 3140 3140 3141 3142 3143 3143 3144 3145 3146 3146 3147 3148 3148 3149 3149 3150 3150 3151 3152 3152 3152 3153 3153 3153 3153 3153 3154 3154 3154 3154 3154 3154 3154 3154 3154
3107 3109 3110 3111 3112 3113 3114 3115 3117 3118 3119 3121 3123 3124 3126 3127 3128 3129 3130 3131 3131 3132 3133 3134 3135 3136 3137 3138 3139 3139 3140 3141 3142 3142 3143 3144 3144 3145 3145 3146 3147 3147 3148 3148 3148 3149 3149 3150 3150 3150 3150 3150 3150 3150 3151 3151 3151 3151 3151 3151 3151 3151 3151
3106 3107 3109 3110 3111 3112 3113 3114 3116 3117 3118 3120 3121 3123 3124 3125 3127 3128 3128 3129 3130 3130 3131 3132 3133 3134 3135 3136 3137 3138 3139 3139 3140 3141 3141 3142 3143 3143 3144 3144 3145 3145 3145 3146 3146 3146 3146 3146 3146 3146 3146 3146 3146 3147 3147 3147 3148 3147 3147 3147 3147 3147 3147
3105 3106 3108 3109 3110 3111 3113 3114 3115 3116 3117 3118 3120 3122 3123 3124 3125 3126 3127 3127 3128 3129 3129 3130 3131 3132 3133 3134 3135 3136 3136 3137 3138 3138 3139 3139 3139 3140 3140 3141 3142 3142 3143 3143 3143 3143 3143 3143 3143 3142 3142 3142 3142 3142 3143 3143 3143 3143 3143 3143 3143 3143 3143
3104 3105 3107 3108 3109 3110 3111 3113 3114 3115 3116 3117 3119 3120 3121 3122 3123 3124 3125 3125 3126 3127 3127 3128 3129 3129 3130 3131 3132 3133 3134 3135 3135 3136 3136 3136 3137 3137 3137 3138 3138 3139 3139 3139 3139 3139 3139 3139 3139 3139 3139 3139 3138 3138 3139 3139 3139 3139 3139 3139 3139 3139 3138
3103 3104 3105 3107 3108 3109 3110 3111 3112 3113 3114 3115 3117 3118 3119 3120 3121 3122 3122 3123 3124 3124 3125 3125 3126 3127 3127 3128 3129 3130 3131 3131 3132 3132 3133 3133 3134 3134 3134 3134 3135 3135 3136 3136 3135 3135 3134 3134 3134 3135 3135 3135 3134 3134 3135 3135 3135 3135 3135 3135 3135 3135 3134
3102 3103 3104 3106 3107 3108 3109 3110 3111 3111 3113 3114 3115 3116 3117 3118 3119 3119 3120 3120 3121 3121 3122 3123 3123 3124 3125 3125 3126 3127 3128 3128 3129 3129 3130 3130 3130 3130 3131 3131 3131 3131 3132 3132 3132 3131 3130 3130 3130 3130 3130 3130 3130 3130 3131 3131 3130 3130 3130 3130 3130 3130 3130
3102 3103 3104 3105 3106 3107 3108 3109 3110 3110 3111 3112 3113 3114 3115 3116 3117 3117 3117 3118 3118 3118 3119 3120 3120 3121 3121 3122 3123 3123 3124 3125 3125 3126 3126 3127 3127 3127 3127 3127 3127 3127 3127 3128 3127 3127 3127 3126 3126 3126 3126 3126 3125 3126 3127 3127 3125 3125 3126 3125 3126 3126 3126
3101 3102 3103 3104 3105 3106 3107 3108 3109 3110 3111 3111 3112 3113 3113 3114 3114 3115 3115 3116 3116 3116 3116 3117 3117 3118 3118 3119 3120 3120 3121 3121 3122 3122 3122 3123 3123 3123 3123 3123 3122 3122 3122 3122 3123 3123 3122 3122 3122 3121 3121 3121 3121 3122 3122 3121 3121 3120 3120 3120 3120 3121 3120
3100 3101 3102 3104 3105 3105 3106 3107 3108 3109 3110 3110 3111 3111 3112 3112 3112 3113 3113 3113 3113 3114 3114 3114 3114 3114 3115 3116 3116 3116 3117 3117 3117 3117 3118 3118 3118 3118 3118 3118 3118 3117 3117 3117 3117 3117 3117 3117 3116 3116 3116 3116 3116 3116 3116 3115 3115 3115 3114 3114 3114 3115 3115
3099 3100 3101 3102 3103 3104 3105 3106 3107 3107 3108 3108 3109 3109 3109 3110 3110 3110 3110 3110 3110 3110 3110 3110 3110 3110 3111 3111 3112 3112 3112 3112 3112 3112 3112 3112 3112 3112 3112 3113 3113 3113 3112 3112 3111 3111 3111 3111 3110 3110 3110 3110 3110 3110 3109 3108 3108 3109 3108 3108 3108 3108 3108
3098 3098 3099 3100 3101 3102 3103 3104 3105 3105 3106 3106 3106 3106 3106 3107 3106 3106 3106 3106 3106 3107 3107 3107 3107 3107 3106 3106 3107 3107 3107 3106 3106 3106 3105 3106 3106 3106 3106 3106 3106 3107 3107 3107 3106 3105 3105 3104 3104 3104 3104 3104 3103 3103 3102 3102 3102 3102 3102 3102 3102 3102 3102
3096 3097 3097 3098 3098 3099 3100 3100 3101 3102 3102 3103 3103 3103 3103 3103 3103 3103 3103 3103 3103 3103 3103 3103 3103 3103 3102 3101 3101 3100 3100 3100 3099 3099 3099 3098 3098 3099 3099 3099 3099 3099 3100 3100 3100 3100 3099 3099 3098 3098 3097 3097 3096 3096 3095 3095 3095 3095 3095 3095 3095 3096 3096